• Join FlightAware (Why Join?)
  • Login
  • US Flag 
06:13PM EST


 

Airport Tracker/Info


-or-


 

Live Flight TrackerFlight Track Log ✈ JIA2476 ✈ 04-Jul-2013 ✈ KLYH - KCLT

Flight Track Log - Related Links

Times and Time Zones

All times are in EDT time to prevent confusion due to time zone crossing. See the JIA2476 flight status page for this flight to view local times or setup timezone preferences in your user account.

Time Position Orientation Groundspeed Altitude Reporting Facility
EDT Latitude Longitude Course Direction KTS MPH feet Rate Location/Type
05:46PM 37.2350 -79.2544 212° Southwest 188 216 5,700  Level Washington Center
05:47PM 37.1750 -79.3036 213° Southwest 223 257 8,600 2,826 Climbing Washington Center
05:48PM 37.0465 -79.3918 214° Southwest  Level FlightAware Approximate
05:48PM 37.1111 -79.3528 212° Southwest 259 298 11,400  Level Washington Center
05:49PM 36.9834 -79.4499 219° Southwest  Level FlightAware Approximate
05:50PM 36.9168 -79.5018 212° Southwest  Level FlightAware Approximate
05:50PM 36.9647 -79.4261 202° Southwest 281 323 16,200  Level Washington Center
05:51PM 36.8472 -79.5559 212° Southwest  Level FlightAware Approximate
05:51PM 36.8944 -79.4744 209° Southwest 302 348 17,800  Level Washington Center
05:52PM 36.8333 -79.5544 226° Southwest 310 357 19,700 1,983 Climbing Washington Center
05:53PM 36.7883 -79.6533 240° Southwest 317 365 21,700 1,169 Climbing Washington Center
05:54PM 36.7431 -79.7547 241° Southwest 328 377 22,000 126 Climbing Washington Center
05:55PM 36.6728 -79.9106 241° Southwest 354 407 22,000  Level Atlanta Center
05:56PM 36.6242 -80.0167 240° Southwest 348 400 22,000  Level Atlanta Center
05:57PM 36.5797 -80.1247 243° Southwest 348 400 22,000  Level Atlanta Center
05:58PM 36.5289 -80.2281 239° Southwest 353 406 22,000 -300 Level Atlanta Center
05:59PM 36.4686 -80.3031 225° Southwest 353 406 21,400 -750 Descending Atlanta Center
06:00PM 36.3822 -80.3433 201° Southwest 330 380 20,500 -950 Descending Atlanta Center
06:01PM 36.2933 -80.3681 193° South 324 373 19,500 -1,150 Descending Atlanta Center
06:02PM 36.2022 -80.3900 191° South 317 365 18,200 -1,050 Descending Atlanta Center
06:03PM 36.1236 -80.4092 191° South 317 365 17,400 -980 Descending Atlanta Center
06:04PM 36.0717 -80.4242 193° South 293 337 16,600 -1,152 Descending Atlanta Center
06:05PM 35.9928 -80.4303 184° South 287 330 15,500 -1,140 Descending Atlanta Center
06:06PM 35.9114 -80.4339 182° South 285 328 14,300 -1,240 Descending Atlanta Center
06:07PM 35.8417 -80.4678 202° Southwest 277 319 13,000 -1,033 Descending Atlanta Center
06:08PM 35.7739 -80.5092 206° Southwest 266 306 12,200 -1,082 Descending Atlanta Center
06:09PM 35.7000 -80.5533 206° Southwest 272 313 10,800 -1,426 Descending Atlanta Center
06:10PM 35.6344 -80.5969 208° Southwest 273 314 9,300 -1,488 Descending Atlanta Center
06:11PM 35.5669 -80.6406 208° Southwest 269 310 7,800 -1,488 Descending Atlanta Center
06:12PM 35.5011 -80.6792 206° Southwest 267 307 6,300 -1,031 Descending Atlanta Center
06:13PM 35.4333 -80.7200 206° Southwest 253 291 5,600 -934 Descending Atlanta Center
06:14PM 35.3761 -80.7556 207° Southwest 247 284 4,400 -1,086 Descending Atlanta Center
06:15PM 35.3228 -80.7958 212° Southwest 214 246 3,500 -885 Descending Atlanta Center